Flag for U.S.A. Weather past 2 weeks in Oklahoma City, Oklahoma, U.S.A.

Now
47 °F

Partly sunny.


Feels Like: 45 °F
Forecast: 33 / 52 °F
Wind: 5 mph from East

Location: Will Rogers World Airport

Current Time: Jan 30, 2015 at 2:26:48 PM

Latest Report: Jan 30, 2015 at 1:52 PM


Visibility: 10 mi

Pressure: 30.41 "Hg

Humidity: 37%

Dew point: 22 °F

Location of Oklahoma CityLocation

Historic Weather in Oklahoma City — Graph

°F

Oklahoma City temperature yesterday

Maximum temperature yesterday: 59 °F (at 1:52 AM)
Minimum temperature yesterday: 43 °F (at 11:52 PM)
Average temperature yesterday: 49 °F

Past Weeks' High & Low Weather Summary

 TemperatureHumidityPressure
High79 °F (Jan 28, 3:52 PM)89% (Jan 22, 4:52 AM)30.54 "Hg (Jan 22, 4:52 AM)
Low28 °F (Jan 26, 6:52 AM)9% (Jan 19, 3:52 PM)29.83 "Hg (Jan 17, 5:52 AM)
Average48 °F50%30.14 "Hg
* Reported Jan 15 12:52 PM — Jan 30 12:52 PM, Oklahoma City, Weather by CustomWeather, © 2014

Note: Actual official high and low records may vary slightly from our data, if they occured in-between our weather recording intervals... More about our weather records

Advertising

Oklahoma City weather history for previous 24 hours

 ConditionsComfort  
Time TempWeatherWind HumidityBarometerVisibility
12:52 PM
Jan 30
47 °FBroken clouds.8 mph39%30.45 "Hg10 mi
11:52 AM44 °FBroken clouds.7 mph43%30.49 "Hg10 mi
10:52 AM41 °FPartly sunny.7 mph53%30.53 "Hg10 mi
9:52 AM39 °FMostly cloudy.8 mph60%30.54 "Hg10 mi
8:52 AM38 °FPartly sunny.6 mph65%30.54 "Hg10 mi
7:52 AM36 °FPartly sunny.3 mph67%30.54 "Hg10 mi
6:52 AM36 °FPassing clouds.6 mph67%30.53 "Hg10 mi
5:52 AM36 °FPassing clouds.No wind67%30.52 "Hg10 mi
4:52 AM35 °FPassing clouds.3 mph70%30.51 "Hg10 mi
3:52 AM36 °FPassing clouds.7 mph67%30.50 "Hg10 mi
2:52 AM38 °FPassing clouds.8 mph63%30.50 "Hg10 mi
1:52 AM39 °FPartly cloudy.8 mph60%30.51 "Hg10 mi
12:52 AM42 °FPartly cloudy.12 mph53%30.51 "Hg10 mi
11:52 PM
Jan 29
43 °FMostly cloudy.10 mph53%30.52 "Hg10 mi
10:52 PM44 °FMostly cloudy.10 mph51%30.53 "Hg10 mi
9:52 PM45 °FMostly cloudy.9 mph49%30.50 "Hg10 mi
8:52 PM46 °FMostly cloudy.9 mph48%30.49 "Hg10 mi
7:52 PM46 °FPartly cloudy.8 mph48%30.48 "Hg10 mi
6:52 PM47 °FPassing clouds.9 mph46%30.47 "Hg10 mi
5:52 PM48 °FBroken clouds.14 mph44%30.45 "Hg10 mi
4:52 PM49 °FBroken clouds.17 mph43%30.43 "Hg10 mi
3:52 PM50 °FPartly sunny.21 mph41%30.42 "Hg10 mi
2:52 PM51 °FBroken clouds.23 mph41%30.40 "Hg10 mi
Weather by CustomWeather, © 2014

See weather overviewHow to use our weather pages